Weather History for KTTA - March, 2013

Change the Weather History Date:

Sunday, March 17, 2013

  Actual Average (KRDU) Record (KRDU)
Temperature  
Mean Temperature 54 °F 52 °F  
Max Temperature 64 °F 64 °F 92 °F (1945)
Min Temperature 45 °F 40 °F 18 °F (1981)
Degree Days  
Heating Degree Days 10 14  
Month to date heating degree days 266  
Since 1 July heating degree days 2838  
Cooling Degree Days 0 0  
Month to date cooling degree days 0  
Year to date cooling degree days 1  
Growing Degree Days 4 (Base 50)    
Moisture  
Dew Point 44 °F    
Average Humidity 75    
Maximum Humidity 91    
Minimum Humidity 52    
Precipitation  
Precipitation 0.00 in 0.14 in 1.33 in (1965)
Month to date precipitation 2.30  
Year to date precipitation 9.03  
Snow  
Snow 0.00 in 0.00 in 0.50 in (1915)
Month to date snowfall 0.4  
Since 1 July snowfall 5.9  
Snow Depth -    
Sea Level Pressure  
Sea Level Pressure 29.99 in    
Wind  
Wind Speed 4 mph (NE)    
Max Wind Speed 15 mph    
Max Gust Speed 21 mph    
Visibility 9 miles    
Events      
T = Trace of Precipitation, MM = Missing Value Source: NWS Daily Summary

Daily Weather History Graph

Daily Weather History Graph

Search for Another Location

Airport or City:

Trip Planner

Search our weather history database for the weather conditions in past years. The results will help you decide how hot, cold, wet, or windy it might be!

Date:

Astronomy

Mar. 17, 2013 Rise Set
Actual Time 7:23 AM EDT 7:25 PM EDT
Civil Twilight 6:58 AM EDT 7:51 PM EDT
Nautical Twilight 6:28 AM EDT 8:20 PM EDT
Astronomical Twilight 5:59 AM EDT 8:50 PM EDT
Moon 10:46 AM EDT (3/17) 12:21 AM EDT (3/17)
Length of Visible Light 12h 52m
Length of Day
12h 01m
Waxing Crescent, 31% of the Moon is Illuminated
Mar 17
Waxing Crescent
Mar 19
First Quarter
Mar 27
Full
Apr 3
Last Quarter
Apr 10
New

Hourly Weather History & Observations

Time (EDT) Temp. Windchill Dew Point Humidity Pressure Visibility Wind Dir Wind Speed Gust Speed Precip Events Conditions
12:15 AM 55.4 °F - 44.8 °F 67% 29.85 in 10.0 mi Calm Calm - N/A   Clear
12:35 AM 56.3 °F - 44.8 °F 65% 29.85 in 10.0 mi Calm Calm - N/A   Clear
1:15 AM 51.6 °F - 44.2 °F 76% 29.85 in 10.0 mi Calm Calm - N/A   Clear
1:35 AM 54.9 °F - 44.1 °F 67% 29.86 in 10.0 mi Calm Calm - N/A   Clear
2:15 AM 52.9 °F - 43.7 °F 71% 29.86 in 10.0 mi Calm Calm - N/A   Clear
2:35 AM 50.0 °F - 43.9 °F 79% 29.87 in 10.0 mi Calm Calm - N/A   Clear
2:55 AM 50.0 °F - 43.5 °F 78% 29.87 in 10.0 mi Calm Calm - N/A   Clear
3:15 AM 50.5 °F - 43.3 °F 76% 29.88 in 10.0 mi SSW 3.5 mph - N/A   Clear
3:35 AM 51.3 °F - 43.0 °F 73% 29.87 in 10.0 mi Calm Calm - N/A   Clear
3:55 AM 50.5 °F - 42.4 °F 74% 29.87 in 10.0 mi Calm Calm - N/A   Clear
4:15 AM 48.9 °F - 43.5 °F 82% 29.88 in 10.0 mi Calm Calm - N/A   Clear
4:35 AM 48.0 °F - 42.6 °F 82% 29.88 in 10.0 mi Calm Calm - N/A   Clear
4:55 AM 48.2 °F - 42.4 °F 80% 29.88 in 10.0 mi Calm Calm - N/A   Clear
5:15 AM 47.8 °F - 41.9 °F 80% 29.88 in 10.0 mi Calm Calm - N/A   Clear
5:35 AM 47.5 °F - 42.3 °F 82% 29.89 in 10.0 mi Calm Calm - N/A   Clear
5:55 AM 46.9 °F - 42.1 °F 83% 29.89 in 10.0 mi Calm Calm - N/A   Clear
6:15 AM 47.1 °F - 43.0 °F 86% 29.90 in 10.0 mi Calm Calm - N/A   Clear
6:35 AM 46.0 °F 43.9 °F 43.3 °F 90% 29.91 in 10.0 mi NNE 4.6 mph - N/A   Clear
6:55 AM 48.2 °F - 43.9 °F 85% 29.92 in 10.0 mi Calm Calm - N/A   Clear
7:15 AM 46.9 °F - 43.2 °F 87% 29.93 in 10.0 mi Calm Calm - N/A   Clear
7:35 AM 45.9 °F - 42.6 °F 88% 29.94 in 10.0 mi Calm Calm - N/A   Clear
7:55 AM 46.8 °F - 43.0 °F 87% 29.95 in 10.0 mi NNE 4.6 mph - N/A   Clear
8:15 AM 48.9 °F - 46.0 °F 90% 29.95 in 10.0 mi NNE 4.6 mph - N/A   Clear
8:35 AM 52.7 °F - 48.7 °F 86% 29.95 in 10.0 mi NE 5.8 mph - N/A   Scattered Clouds
8:55 AM 53.6 °F - 50.0 °F 88% 29.96 in 10.0 mi Calm Calm - N/A   Mostly Cloudy
9:15 AM 54.5 °F - 51.4 °F 89% 29.97 in 7.0 mi East 4.6 mph - N/A   Overcast
9:35 AM 55.4 °F - 52.7 °F 91% 29.97 in 5.0 mi NE 5.8 mph - N/A   Overcast
9:55 AM 55.6 °F - 52.7 °F 90% 29.99 in 5.0 mi ENE 4.6 mph - N/A   Overcast
10:15 AM 55.8 °F - 52.9 °F 90% 30.00 in 5.0 mi NE 4.6 mph - N/A   Overcast
10:35 AM 56.3 °F - 53.1 °F 89% 30.01 in 5.0 mi NE 5.8 mph - N/A   Overcast
11:15 AM 56.7 °F - 53.1 °F 88% 30.01 in 5.0 mi ENE 4.6 mph - N/A   Overcast
11:35 AM 54.7 °F - 51.3 °F 88% 30.02 in 4.0 mi North 9.2 mph - N/A   Overcast
11:55 AM 53.6 °F - 51.1 °F 91% 30.02 in 4.0 mi North 6.9 mph - N/A   Overcast
12:15 PM 54.3 °F - 51.1 °F 89% 30.03 in 5.0 mi North 9.2 mph - N/A   Overcast
12:35 PM 55.2 °F - 50.4 °F 84% 30.03 in 7.0 mi North 8.1 mph - N/A   Overcast
12:55 PM 57.2 °F - 49.8 °F 76% 30.02 in 10.0 mi North 6.9 mph - N/A   Overcast
1:15 PM 59.4 °F - 48.6 °F 67% 30.02 in 10.0 mi Calm Calm - N/A   Overcast
1:35 PM 64.0 °F - 47.1 °F 54% 30.01 in 10.0 mi East 9.2 mph - N/A   Mostly Cloudy
1:55 PM 64.6 °F - 46.4 °F 52% 30.01 in 10.0 mi NE 9.2 mph 16.1 mph N/A   Scattered Clouds
2:15 PM 61.7 °F - 46.2 °F 57% 30.02 in 10.0 mi East 8.1 mph - N/A   Mostly Cloudy
2:35 PM 62.8 °F - 45.7 °F 54% 30.01 in 10.0 mi ENE 11.5 mph 16.1 mph N/A   Mostly Cloudy
2:55 PM 61.0 °F - 45.5 °F 57% 30.01 in 10.0 mi East 9.2 mph 18.4 mph N/A   Mostly Cloudy
3:15 PM 59.2 °F - 45.5 °F 60% 30.00 in 10.0 mi East 6.9 mph - N/A   Overcast
3:35 PM 58.6 °F - 44.8 °F 60% 30.00 in 10.0 mi NE 10.4 mph 19.6 mph N/A   Overcast
4:15 PM 57.2 °F - 44.8 °F 63% 30.00 in 10.0 mi NE 10.4 mph 17.3 mph N/A   Overcast
4:35 PM 56.3 °F - 43.7 °F 63% 30.01 in 10.0 mi NE 9.2 mph - N/A   Overcast
4:55 PM 55.8 °F - 42.3 °F 60% 30.01 in 10.0 mi NNE 11.5 mph - N/A   Overcast
5:15 PM 54.1 °F - 42.1 °F 64% 30.01 in 10.0 mi NNE 11.5 mph 17.3 mph N/A   Overcast
5:35 PM 53.6 °F - 41.9 °F 65% 30.02 in 10.0 mi NNE 11.5 mph 17.3 mph N/A   Overcast
5:55 PM 53.1 °F - 41.4 °F 64% 30.02 in 10.0 mi NNE 15.0 mph 18.4 mph N/A   Scattered Clouds
6:15 PM 52.2 °F - 41.2 °F 66% 30.03 in 10.0 mi NNE 12.7 mph 19.6 mph N/A   Clear
6:35 PM 51.3 °F - 41.0 °F 68% 30.05 in 10.0 mi NE 10.4 mph 17.3 mph N/A   Mostly Cloudy
6:55 PM 50.2 °F - 40.5 °F 69% 30.06 in 10.0 mi NE 13.8 mph 20.7 mph N/A   Overcast
7:15 PM 49.6 °F - 40.5 °F 71% 30.06 in 10.0 mi NE 11.5 mph 17.3 mph N/A   Overcast
7:35 PM 49.1 °F - 40.1 °F 71% 30.07 in 10.0 mi NE 8.1 mph 19.6 mph N/A   Overcast
7:55 PM 48.6 °F - 40.1 °F 73% 30.07 in 10.0 mi NE 10.4 mph 16.1 mph N/A   Overcast
8:15 PM 48.4 °F - 40.1 °F 73% 30.07 in 10.0 mi NE 11.5 mph 16.1 mph N/A   Overcast
8:35 PM 48.0 °F - 39.6 °F 73% 30.09 in 10.0 mi NE 9.2 mph 17.3 mph N/A   Overcast
9:15 PM 47.3 °F - 38.8 °F 72% 30.11 in 10.0 mi NE 9.2 mph 16.1 mph N/A   Overcast
9:35 PM 46.9 °F - 38.5 °F 72% 30.12 in 10.0 mi NE 6.9 mph - N/A   Overcast
9:55 PM 46.9 °F - 38.3 °F 72% 30.13 in 10.0 mi NE 6.9 mph - N/A   Overcast
10:15 PM 46.6 °F - 38.3 °F 73% 30.14 in 10.0 mi NE 8.1 mph - N/A   Overcast
10:35 PM 46.4 °F 42.9 °F 37.9 °F 72% 30.14 in 10.0 mi NE 6.9 mph - N/A   Overcast
10:55 PM 46.0 °F 42.5 °F 37.8 °F 73% 30.15 in 10.0 mi NE 6.9 mph - N/A   Overcast
11:15 PM 45.7 °F 41.5 °F 38.1 °F 75% 30.15 in 10.0 mi NE 8.1 mph - N/A   Overcast
11:35 PM 45.5 °F 41.3 °F 38.3 °F 76% 30.16 in 10.0 mi NE 8.1 mph - N/A   Overcast
11:55 PM 45.0 °F 40.6 °F 38.5 °F 78% 30.15 in 10.0 mi NE 8.1 mph - N/A   Overcast